Location: *
(29.1167°S, 130.0000°E)
Time: 08:20:17
(UTC+00:00)

Cosmos 1867 - Pass Details

Date: 21 July 2019
Orbit: 774 x 801 km, 65.0° (Epoch: 26 August)

Event Time Altitude Azimuth Distance (km) Brightness Sun altitude
Rises 10:37:47 0° 203° (SSW) 3,281 6.9 -24.9°
Reaches altitude 10° 10:40:15 10° 199° (SSW) 2,349 6.1 -25.4°
Enters shadow 10:43:39 38° 181° (S) 1,193 4.3 -26.2°
